Location: Peach Mountain Observatory
(42.3967°N, 83.9367°W)
Time: 20:53:53
(UTC-05:00)

Hubble Space Telescope - Visible Passes

Search period start: 09 December 2019 00:00
Search period end: 19 December 2019 00:00
Orbit: 536 x 540 km, 28.5° (Epoch: 08 December)

Date Brightness Start Highest point End Pass type
(mag) Time Alt. Az. Time Alt. Az. Time Alt. Az.
16 Dec 3.6 06:18:39 10° S 06:19:20 10° S 06:20:02 10° SSE visible
17 Dec 3.5 06:07:24 10° S 06:08:35 11° S 06:09:46 10° SSE visible
18 Dec 3.4 05:56:26 10° SSW 05:57:50 11° S 05:59:15 10° SSE visible
